Probability
0 0 2 5 5 2 0 0 1 1 0 0 0 1 3 3 4 4 4 5 8 7 7 7 6 6 4 2 1 0 0 0 1 1 1 0 0 0 0 0 1 2 3 2 3 4 4 4 4
0 1 3 4 3 1 0 1 2 2 1 0 1 2 3 2 2 3 4 6 7 7 7 7 6 5 4 2 1 0 0 0 1 1 1 0 0 0 0 0 0 1 2 1 1 2 2 2 2
1 2 2 2 1 0 1 2 3 2 1 0 2 3 2 1 1 2 4 5 6 6 7 7 6 4 3 2 1 0 0 0 1 2 1 0 0 0 0 0 0 0 0 1 1 0 0 0 0
3 3 2 1 0 0 1 2 3 2 1 0 1 3 2 1 1 2 2 4 5 6 6 7 6 4 2 1 0 0 0 0 1 2 1 1 0 0 0 0 0 0 0 0 0 0 0 0 0
4 3 1 0 0 0 1 1 1 1 0 0 1 4 3 2 1 1 1 3 5 6 6 6 6 4 1 0 0 0 0 0 1 2 3 2 1 0 0 0 0 0 0 0 0 0 0 0 1
3 1 0 0 1 1 1 1 1 1 0 0 2 5 6 3 1 1 1 3 6 7 5 5 5 4 2 1 0 0 1 1 0 2 4 4 2 0 0 0 0 0 0 0 0 0 0 1 1
2 1 0 0 1 2 2 2 1 1 0 0 1 6 8 6 2 0 1 3 6 7 4 2 2 3 3 2 1 1 1 1 0 1 3 4 2 0 0 0 0 0 0 0 0 1 1 1 1
1 0 0 0 1 3 4 4 3 1 1 1 2 6 10 8 2 0 1 3 5 6 3 1 1 1 1 1 1 2 1 1 0 0 1 1 0 0 0 0 1 1 2 1 1 1 3 2 1
0 0 0 0 1 3 5 5 4 2 2 2 3 7 11 8 2 1 2 3 5 6 3 1 0 0 0 0 1 2 2 1 0 0 0 0 0 0 0 1 2 4 5 4 3 3 4 3 2
0 0 0 1 2 4 6 5 4 3 1 1 3 7 9 7 3 1 3 4 6 7 4 1 0 0 0 0 1 1 2 1 0 0 0 0 0 1 1 2 4 6 6 6 5 5 4 3 3
0 0 1 2 3 4 5 4 4 3 1 0 2 6 8 6 4 3 3 3 5 7 6 4 2 1 1 1 1 0 1 1 0 0 0 0 1 2 3 4 6 8 7 6 6 5 3 2 2
0 1 2 2 2 2 2 3 3 3 2 0 2 5 6 5 3 3 3 3 6 9 10 9 7 6 7 6 4 3 2 2 2 2 1 1 1 2 4 5 6 8 7 6 6 5 3 3 2
1 1 2 2 1 1 1 2 2 3 3 1 1 3 5 5 4 4 5 8 13 17 18 15 13 13 14 12 9 7 7 7 5 4 4 4 3 3 4 5 7 7 6 6 6 5 4 4 4
0 1 1 1 1 2 1 1 1 2 3 2 1 2 3 5 7 9 13 17 22 26 26 23 20 19 19 17 14 12 12 11 10 9 9 9 7 6 7 7 8 7 5 6 7 6 6 7 7
0 0 0 0 1 1 1 0 1 3 3 3 2 1 2 5 9 14 21 26 28 31 32 28 24 23 22 20 18 15 14 14 15 16 16 15 13 11 10 10 9 8 8 7 8 9 9 10 10
0 0 0 0 0 0 0 0 2 4 5 3 2 2 4 6 10 16 24 29 31 35 37 33 28 27 26 24 21 18 16 17 20 23 21 19 17 14 12 11 10 9 9 8 8 10 11 11 11
0 0 0 0 0 0 0 1 3 5 5 3 2 4 6 7 10 18 26 29 33 40 42 39 35 33 31 27 24 22 19 20 24 26 26 23 20 17 14 13 12 11 10 9 8 11 12 11 11
0 0 0 0 0 0 1 2 3 4 4 2 2 6 9 10 13 21 26 31 37 44 47 44 40 39 37 33 29 26 24 24 26 27 27 25 22 19 15 13 14 15 14 12 11 10 12 12 12
0 0 0 0 0 0 1 3 4 4 5 4 4 8 13 16 19 24 27 32 43 50 51 48 44 42 41 38 35 32 29 27 27 26 26 25 23 20 16 13 15 16 16 15 13 12 11 12 12
0 0 0 0 0 0 1 3 4 4 5 4 5 9 16 22 26 28 28 33 45 54 54 51 48 46 44 41 39 35 31 28 26 25 25 24 23 22 19 16 16 16 16 15 15 13 12 11 12
0 0 0 0 0 0 0 2 3 4 5 5 6 10 17 25 31 31 29 34 44 53 54 52 51 50 47 43 39 35 33 29 24 23 24 24 23 22 20 19 18 18 16 15 15 13 11 10 11
0 0 0 0 1 0 0 0 2 5 8 8 8 11 18 26 31 29 29 34 41 49 52 51 53 52 49 45 40 37 35 31 25 24 26 27 26 23 21 20 20 20 18 15 13 11 10 9 9
0 0 0 0 0 0 0 0 2 6 9 10 10 12 19 26 30 29 29 35 39 43 48 51 54 53 51 47 42 39 38 35 31 29 31 31 28 24 21 20 21 22 20 16 13 12 10 9 8
0 0 0 0 0 0 0 0 3 6 9 9 10 12 18 26 32 32 31 34 37 39 44 51 53 53 51 48 44 41 42 43 39 35 33 31 29 26 21 20 22 23 21 18 14 13 12 11 9
0 0 0 0 0 0 0 1 3 6 8 10 10 12 16 23 29 31 30 32 36 39 44 48 50 50 50 48 45 42 44 45 42 37 33 31 29 27 24 22 23 24 21 18 15 12 12 12 11
0 0 0 0 0 0 0 1 4 7 9 11 12 12 13 19 26 28 29 32 35 39 43 46 46 46 48 47 46 45 45 43 40 37 34 31 28 26 26 25 25 24 21 18 16 13 10 10 11
0 0 0 0 0 0 0 1 5 8 9 11 12 11 11 16 24 29 31 33 35 38 43 44 43 43 45 45 44 44 43 41 38 36 33 30 27 26 27 26 25 22 20 19 19 16 12 10 10
0 1 1 1 0 0 0 1 5 8 8 8 9 12 15 17 24 30 32 34 37 40 43 44 42 41 43 44 43 42 41 39 38 35 33 31 29 29 30 29 25 20 17 19 20 19 16 15 14
0 1 2 2 1 0 0 2 6 9 9 7 8 15 21 22 25 32 33 33 37 41 42 42 41 41 43 44 44 43 40 38 37 36 34 33 32 33 33 31 27 20 15 16 18 18 18 18 18
0 0 1 2 2 1 0 2 8 11 10 9 10 17 23 25 28 34 34 33 37 40 41 39 39 41 44 45 45 44 42 39 37 36 35 34 35 35 34 31 27 19 14 15 16 16 17 19 19
Wind_Speed
8 10 9 7 7 5 2 4 10 10 11 12 11 11 15 15 12 11 10 13 16 16 14 13 12 10 10 9 9 9 8 8 8 8 7 8 8 8 8 9 9 8 8 9 9 8 8 8 8
9 11 10 7 6 2 2 7 11 11 10 9 10 11 14 14 14 12 11 12 16 15 14 12 12 11 10 9 9 9 9 8 8 8 8 8 8 8 8 8 8 9 9 9 9 8 7 7 6
12 15 9 7 6 2 4 8 10 9 8 8 10 12 12 10 12 11 11 12 15 15 15 13 13 11 10 10 9 9 8 8 8 8 8 8 8 8 8 8 9 9 9 9 8 7 7 6 6
9 9 8 7 5 2 5 8 8 6 8 8 9 11 12 10 10 12 12 12 14 15 15 14 13 11 10 10 9 8 8 8 8 8 8 8 8 8 8 8 8 8 8 9 8 7 6 6 5
10 8 8 8 5 3 6 7 6 6 8 8 10 13 13 12 14 14 11 12 14 14 14 14 13 11 10 10 9 8 8 8 8 8 8 7 7 7 8 8 8 8 8 8 8 6 5 5 4
8 8 8 6 3 3 6 5 5 5 8 8 11 13 11 12 12 11 11 10 13 14 13 12 13 12 11 10 9 9 8 8 8 8 7 7 7 7 7 7 7 7 7 7 6 5 5 4 3
11 10 10 10 4 2 6 5 4 4 6 6 8 11 12 12 11 10 10 11 12 14 12 10 10 10 11 11 9 9 8 8 7 7 6 6 6 7 7 7 7 7 6 6 5 5 4 3 2
11 10 13 11 5 3 5 4 4 5 5 6 5 8 12 13 12 11 10 10 11 11 11 9 9 9 8 8 9 9 8 7 7 7 6 5 6 7 8 7 6 6 6 5 4 4 4 3 2
14 11 11 9 4 3 5 5 5 5 4 5 7 13 16 15 14 12 10 9 9 9 9 8 8 8 8 8 8 9 8 7 6 5 6 5 4 5 5 7 7 6 6 5 4 4 4 4 4
10 10 11 7 1 2 4 4 4 5 5 5 10 15 17 15 12 11 10 10 9 8 7 7 7 7 7 6 6 5 5 5 4 3 4 3 2 3 5 8 8 6 6 5 5 5 5 4 3
12 12 9 6 1 1 3 3 3 4 5 6 9 14 14 14 11 10 10 10 10 8 7 7 7 6 6 4 4 3 3 4 3 3 2 1 1 2 4 3 4 4 5 3 3 4 3 2 2
13 11 9 6 2 4 4 3 2 1 3 8 8 11 12 12 11 10 10 10 10 9 8 7 8 6 5 4 3 3 3 2 3 3 1 1 0 1 2 1 2 2 2 2 2 1 2 1 1
12 10 9 6 4 5 7 5 4 4 5 9 10 11 12 11 11 10 9 9 10 9 7 7 7 6 4 3 1 3 2 3 4 3 1 1 1 1 1 1 1 1 1 1 1 1 1 1 1
10 10 9 8 8 8 9 7 6 6 7 9 10 10 10 10 10 10 9 9 9 8 7 6 7 6 4 3 1 2 3 2 3 3 3 1 2 2 1 1 1 1 1 1 1 1 2 1 1
11 11 12 11 10 9 9 11 9 8 8 9 9 9 9 10 11 10 10 9 10 8 7 6 6 6 4 3 1 2 2 2 2 3 3 2 2 2 1 1 1 1 1 1 1 1 1 2 2
13 13 14 12 12 10 12 11 7 10 10 10 9 9 9 9 9 10 11 9 10 9 7 6 6 6 5 3 1 2 2 2 2 2 3 3 2 1 1 1 1 1 1 1 1 1 1 2 2
14 14 14 11 12 11 12 9 6 9 11 10 10 9 9 9 9 9 10 10 9 9 7 6 6 6 5 4 2 1 2 2 2 2 2 2 2 2 1 1 1 1 1 1 1 2 1 2 2
10 11 11 11 10 11 11 8 8 9 9 11 10 10 9 9 9 10 9 10 9 9 8 6 5 5 4 3 2 1 2 2 2 2 2 3 2 2 1 2 1 1 1 2 2 2 1 1 1
12 12 11 10 8 9 10 10 11 10 9 8 10 11 10 9 9 9 9 9 10 9 8 7 6 5 4 3 3 2 2 2 2 2 3 3 2 2 2 1 1 1 1 1 1 1 1 1 1
14 13 11 9 8 8 9 10 9 9 10 9 10 11 12 11 11 9 8 8 9 9 9 7 6 6 4 3 2 2 3 2 2 2 3 3 2 2 2 2 1 1 1 1 1 1 0 0 1
13 12 11 11 10 9 10 12 11 10 10 10 9 10 12 12 12 11 9 9 10 10 9 7 6 6 5 4 3 2 2 1 2 3 3 3 3 2 2 2 1 1 1 1 1 0 0 1 0
12 11 11 12 11 9 11 10 12 12 11 12 11 11 11 12 13 12 11 9 9 10 10 8 7 6 5 5 4 4 3 3 3 2 3 3 3 3 3 3 2 1 1 1 1 1 1 1 1
12 9 10 12 12 13 12 12 8 9 10 9 10 10 10 11 13 12 11 10 9 9 10 9 8 7 6 5 4 3 3 2 2 2 3 3 3 3 3 3 2 2 1 1 1 1 1 1 1
10 11 12 12 11 14 14 12 9 8 10 10 9 9 9 10 11 11 10 9 8 9 9 10 9 7 6 5 5 4 4 3 3 3 4 3 3 3 3 3 2 2 1 1 1 1 1 0 1
11 9 8 9 10 12 10 11 7 7 10 11 11 10 10 9 10 11 11 11 9 9 9 9 9 8 7 6 5 5 4 4 4 3 3 3 3 3 3 3 2 2 1 1 1 1 1 1 1
11 12 10 9 9 9 10 9 7 6 6 8 9 9 9 9 9 9 10 10 10 9 8 9 9 8 8 7 6 5 4 3 3 3 3 3 3 3 3 3 2 2 2 2 1 1 1 1 1
12 12 12 12 13 11 9 8 6 4 5 7 6 6 7 7 7 6 6 7 7 8 8 8 8 8 7 7 7 5 5 4 3 4 3 3 3 3 4 4 3 3 3 2 2 2 1 1 2
13 11 8 9 9 12 10 9 5 6 6 6 7 6 6 5 6 6 6 7 6 7 6 7 8 7 7 7 6 6 5 5 4 3 3 3 3 3 4 3 3 3 3 2 2 1 2 2 1
10 11 10 8 9 10 9 4 2 4 4 4 5 6 6 6 6 5 5 4 6 6 7 6 7 7 6 6 5 4 5 5 4 4 4 3 3 3 3 3 3 3 3 3 2 3 2 2 2
10 10 9 8 8 9 9 4 3 3 4 4 3 5 6 5 5 5 5 4 3 5 5 5 6 7 7 6 5 5 5 4 5 4 3 3 3 3 3 3 3 3 3 3 3 3 2 2 2
Wind_Direction
237 240 235 246 243 245 293 77 71 67 66 56 50 58 64 50 58 88 105 108 108 112 115 111 106 102 97 91 86 83 79 79 79 81 87 92 91 92 92 93 93 90 92 101 103 103 105 106 107
256 250 239 243 252 259 45 68 69 65 72 73 67 67 73 69 79 100 107 111 112 115 116 110 110 104 100 95 89 83 81 81 81 83 89 92 92 94 94 96 96 91 91 97 99 101 104 106 108
259 257 260 246 250 261 76 82 83 83 83 79 74 63 62 78 89 104 115 120 112 112 111 113 114 107 103 100 95 89 84 84 84 84 87 94 96 97 98 98 97 94 92 92 97 102 101 102 106
259 241 237 256 261 41 86 92 94 95 90 83 85 82 74 75 96 112 126 121 113 112 113 117 117 114 111 107 101 95 90 87 85 86 90 95 102 105 105 102 101 99 96 94 94 97 100 98 96
244 256 244 258 261 97 91 93 108 103 92 86 87 91 89 87 104 117 128 119 114 110 112 120 122 120 119 113 107 100 93 91 89 92 94 97 104 110 109 106 103 101 99 100 99 97 96 99 100
256 255 260 257 252 133 101 100 93 93 100 95 99 103 102 110 115 126 126 119 112 112 112 120 128 128 126 121 116 108 102 100 98 97 98 103 108 115 116 112 109 108 109 107 105 105 108 110 115
259 274 275 268 245 171 111 105 102 96 99 100 108 111 119 126 126 131 126 120 114 115 120 129 130 131 129 126 126 118 112 113 112 109 108 111 118 123 123 118 117 118 120 118 117 123 126 129 134
260 276 276 264 233 166 123 127 108 98 95 102 119 116 129 134 139 137 131 124 122 121 126 135 133 131 134 133 133 128 125 126 129 127 124 124 129 134 131 126 124 128 132 136 138 145 153 154 174
257 262 270 270 240 159 137 138 121 116 110 95 88 102 129 142 146 144 138 132 124 122 127 130 133 136 136 134 133 140 141 141 145 146 152 160 158 142 144 129 134 143 148 154 163 169 177 183 200
241 252 264 287 287 163 160 150 143 147 135 108 104 114 134 146 151 152 148 141 132 132 134 131 124 130 130 129 136 151 151 150 169 146 162 185 170 137 129 136 145 154 162 171 187 192 192 203 200
239 249 268 287 336 238 208 188 179 191 151 142 140 137 145 150 156 157 152 144 140 140 134 133 128 124 121 126 137 142 139 150 160 133 147 157 136 133 133 147 156 171 178 185 184 197 202 189 191
246 250 265 276 309 293 265 229 218 241 140 138 137 145 156 160 163 159 155 148 143 142 141 138 128 119 110 113 126 136 133 142 125 126 139 117 84 98 121 138 159 166 168 173 176 168 177 180 160
244 249 252 260 251 259 257 243 220 187 142 136 150 162 165 167 165 160 151 147 145 144 143 132 127 122 116 107 131 129 122 124 121 133 138 119 102 69 77 66 78 112 122 140 148 131 141 129 135
256 258 252 243 238 233 240 235 226 186 161 160 165 165 170 166 164 153 152 147 142 136 134 133 125 120 122 127 137 127 130 118 122 120 113 111 94 82 69 65 53 52 58 73 115 118 109 107 84
259 257 254 243 238 240 249 238 219 180 173 175 170 171 175 168 161 158 157 153 145 139 136 135 135 130 136 139 169 128 120 120 111 113 119 116 101 98 87 94 86 58 70 106 92 84 107 112 100
248 245 243 236 229 220 233 241 201 179 176 184 179 176 173 162 162 160 155 155 144 143 140 146 149 143 143 144 168 136 131 124 119 115 118 114 109 114 90 85 82 37 36 63 88 65 68 64 61
238 237 241 232 215 217 224 236 202 192 183 184 181 173 169 160 164 153 152 151 142 138 141 146 136 140 151 153 170 138 115 118 120 117 118 121 124 116 99 79 80 57 48 44 52 79 70 78 67
244 243 241 240 219 222 227 222 209 204 196 185 182 171 171 168 162 150 151 152 146 140 141 142 134 134 145 148 166 149 136 141 133 122 113 125 139 135 121 110 93 70 64 55 48 59 53 71 89
264 273 268 255 229 226 231 227 215 200 200 197 182 173 170 168 162 155 156 158 150 142 144 146 146 144 151 151 174 175 168 170 150 144 130 133 139 132 127 106 115 99 93 87 86 93 90 113 135
253 260 262 258 245 233 238 237 228 211 200 205 191 176 169 170 163 157 161 164 154 149 151 151 150 152 163 164 178 178 172 170 154 139 131 138 148 147 142 127 133 115 111 99 74 74 83 187 131
249 253 258 262 247 233 237 237 226 218 207 207 200 185 176 173 167 165 167 168 163 158 158 162 159 159 173 164 169 181 156 163 137 134 139 150 154 154 125 127 114 111 121 126 161 112 281 298 321
254 251 259 260 260 249 238 241 220 208 210 199 198 186 176 174 169 170 173 173 171 164 161 159 157 159 168 162 174 178 167 176 166 162 147 159 153 145 143 139 136 134 120 122 173 150 223 247 274
257 268 264 262 261 263 246 248 233 200 210 207 201 187 175 176 169 169 174 172 170 165 163 162 159 162 169 171 171 180 180 175 155 147 135 155 152 150 146 142 144 156 151 148 190 134 213 238 271
253 258 257 255 256 252 249 249 241 219 208 204 197 191 178 174 165 164 167 160 166 163 163 159 159 164 168 175 179 188 187 171 155 158 153 164 155 153 147 150 155 174 170 187 184 220 209 276 305
239 245 249 244 240 246 249 245 232 225 210 193 187 184 177 172 164 165 168 165 171 168 162 160 162 168 173 178 183 189 195 183 169 174 163 163 158 155 158 159 167 179 183 189 182 220 223 220 264
238 239 243 252 253 258 246 237 223 209 205 180 174 177 169 170 165 164 168 165 169 166 162 159 165 169 173 178 181 185 188 189 185 177 172 169 166 160 155 156 172 172 178 197 187 213 222 217 261
243 242 252 262 267 263 244 234 205 187 198 166 165 168 163 167 160 154 155 153 162 164 163 160 161 167 171 177 179 180 181 189 186 168 169 168 162 165 150 165 171 171 184 194 201 214 212 210 234
241 250 251 256 265 266 252 237 215 183 198 184 176 168 155 155 150 152 153 152 161 155 154 157 156 162 170 176 183 178 179 179 174 171 170 166 157 154 155 171 173 176 188 194 205 225 222 215 218
240 244 252 259 262 266 269 261 133 133 161 171 166 157 148 151 144 136 134 149 152 147 152 155 152 157 165 172 175 172 165 167 169 172 168 160 155 161 168 173 178 184 189 189 212 233 216 216 221
250 251 249 252 261 271 274 270 74 101 157 135 141 139 132 125 122 131 135 129 147 154 154 150 156 161 163 162 161 157 152 159 164 165 158 152 156 166 174 179 185 198 198 196 212 236 225 227 225